Wind_Speed
16 14 14 16 17 18 20 20 19 19 19 19 19 19 18 18 18 17 16 14 14 14 13 13 13 13 13 14 14 15 15 14 15 15 15 15 15 15 14 14 15 15 15 16 16 17 17 17 17 17 17 19 19 18 19 20 19 20 22 22 22 22 20 21 23 23 20 19 20 19 16 16 16 15 16 14 10 9 9 6 6 8 11 13 14
18 17 16 16 18 18 19 20 20 20 19 20 20 19 19 19 18 17 16 14 14 14 14 13 13 13 13 14 14 14 15 14 14 14 13 13 13 13 13 13 13 14 14 15 15 15 16 17 17 17 18 20 19 18 18 19 18 19 20 20 21 22 21 21 23 23 22 19 18 19 18 18 18 16 16 16 13 14 13 10 8 8 9 12 14
19 19 19 18 18 18 19 19 20 20 20 21 21 21 20 20 19 18 17 16 15 15 15 15 14 15 15 14 14 14 14 14 13 13 12 12 12 12 11 10 10 12 12 12 12 13 14 15 16 17 18 19 18 18 19 19 19 19 19 20 21 22 21 21 23 23 23 21 19 18 18 19 20 18 17 16 14 16 17 14 11 10 9 12 15
19 20 20 19 19 19 19 20 21 21 22 22 23 23 22 21 20 20 19 17 16 16 16 16 16 16 15 14 14 14 14 13 12 11 11 11 11 12 11 10 11 14 15 13 12 14 15 15 15 16 17 18 17 18 20 19 19 19 20 22 23 22 21 22 24 24 23 23 22 19 18 19 19 16 15 16 16 17 19 17 14 12 11 13 16
20 21 21 21 21 21 22 23 23 23 24 24 24 23 22 21 20 19 18 17 16 17 17 16 16 15 14 13 13 13 14 13 12 10 10 10 10 13 13 12 14 16 17 17 16 17 18 18 17 16 17 18 19 19 19 18 18 19 21 21 20 20 21 21 23 22 23 26 25 21 18 19 20 16 14 15 14 15 18 17 15 16 14 14 16
21 21 20 20 21 22 23 24 24 23 24 25 24 23 22 21 20 19 19 18 17 17 16 15 15 14 13 12 12 12 12 12 11 11 11 10 11 14 14 14 15 16 17 18 19 20 20 20 20 19 19 19 19 20 19 18 19 20 20 20 19 20 21 21 21 21 24 25 24 22 20 19 19 17 15 17 16 16 18 17 16 16 16 17 18
21 21 18 18 19 20 21 23 24 24 24 24 24 23 23 22 20 20 20 19 19 18 17 16 15 13 12 11 11 10 11 11 10 11 11 10 10 12 12 13 14 16 17 19 20 22 23 23 23 24 23 22 21 21 21 20 20 20 21 21 21 21 22 22 22 22 24 25 24 25 23 20 19 18 17 18 19 18 20 21 19 18 18 19 19
20 19 17 18 19 19 19 21 22 23 23 24 25 25 25 25 22 21 21 21 21 19 18 16 15 14 12 11 10 10 10 11 10 10 11 11 10 11 12 13 14 15 17 19 20 22 23 24 26 26 27 27 26 25 25 24 23 23 22 21 19 20 20 21 22 22 22 24 25 24 23 21 21 20 18 20 22 21 22 23 21 21 21 21 20
18 18 17 18 18 17 17 18 18 21 23 23 25 27 29 28 25 24 24 24 23 20 18 17 15 14 13 12 11 10 9 10 11 12 12 10 10 11 12 12 13 14 15 17 18 20 21 24 26 27 29 30 30 29 28 27 27 27 26 24 21 20 20 21 22 22 22 24 25 24 24 24 23 21 19 22 25 24 23 23 21 21 22 22 23
16 17 17 18 17 16 17 17 16 19 21 20 22 26 30 29 27 26 27 26 24 21 19 17 16 15 13 12 11 10 9 10 13 15 14 11 10 11 11 11 12 12 13 15 16 18 20 21 21 23 26 29 30 29 28 27 28 28 28 28 27 24 22 21 23 23 23 24 24 23 25 25 24 22 21 22 25 26 25 25 22 20 22 23 23
15 16 17 17 16 16 18 18 17 19 20 20 22 25 29 31 30 29 28 26 23 22 20 19 17 16 15 13 12 11 10 11 13 15 13 11 10 9 9 10 11 12 13 15 16 17 19 18 16 17 20 22 23 24 25 26 26 26 27 27 28 28 26 24 25 26 27 27 25 24 24 24 25 25 23 22 24 26 28 27 24 23 25 26 26
13 14 15 16 16 17 18 18 18 20 21 22 22 25 29 31 31 31 30 27 25 24 22 20 18 16 15 15 14 13 12 12 13 13 12 10 9 9 9 10 12 13 14 15 16 17 18 17 15 15 16 17 17 18 19 21 22 23 24 24 26 28 29 29 29 29 30 30 29 29 28 26 27 27 26 25 25 26 28 28 26 27 29 29 29
12 12 14 15 16 17 18 18 19 20 22 21 21 24 29 30 30 31 30 28 28 27 24 22 20 18 16 15 15 14 12 11 12 13 11 10 10 10 11 12 13 14 15 17 18 18 18 18 16 15 14 14 15 14 14 15 16 19 21 21 23 24 26 29 30 31 32 33 33 34 33 31 29 27 26 27 26 27 29 28 27 30 31 29 31
13 12 13 14 15 16 18 19 20 20 20 20 21 23 26 27 29 30 29 28 28 28 25 23 21 19 17 15 14 14 13 11 11 12 11 10 11 11 13 14 15 16 17 19 20 20 19 19 18 16 14 13 13 13 13 13 13 15 16 17 18 20 22 25 27 29 31 33 35 37 38 37 35 30 26 26 25 24 27 27 26 30 31 31 33
15 14 14 15 15 16 16 18 19 19 20 21 21 23 24 25 27 27 28 29 28 27 27 25 22 20 17 15 15 14 13 11 10 11 11 12 13 14 15 16 17 18 20 21 22 21 21 20 19 18 16 14 13 15 15 13 13 14 15 15 16 17 20 21 23 25 28 31 33 36 38 39 39 37 34 31 27 24 25 26 26 29 31 30 31
18 18 17 17 17 16 16 17 18 19 20 22 23 23 22 23 25 24 26 28 27 27 28 27 24 21 18 16 15 15 13 11 9 11 12 13 15 16 17 18 19 20 20 20 20 20 19 19 19 18 17 14 14 17 17 15 15 16 16 16 16 16 18 20 22 24 26 28 30 31 33 35 38 40 40 38 34 29 23 22 25 30 32 31 30
21 21 21 20 19 19 18 17 17 18 20 22 23 24 23 22 23 23 25 26 26 26 27 26 24 22 19 18 17 15 14 12 10 11 13 15 16 17 18 19 19 17 17 18 19 19 18 18 17 18 18 15 15 18 18 16 17 17 16 16 16 16 18 20 22 23 24 26 29 30 32 34 35 38 39 40 39 36 30 25 25 28 31 31 29
23 23 24 24 22 22 20 19 18 18 20 22 23 24 24 22 22 23 25 26 26 26 26 27 27 23 19 20 19 15 15 15 11 11 14 16 18 18 18 18 17 17 19 21 21 20 20 20 19 19 19 18 18 19 19 17 17 17 17 17 17 18 21 21 20 20 20 22 25 27 30 32 34 36 38 39 38 38 39 37 32 28 28 30 31
22 23 24 24 24 24 23 22 21 20 20 21 22 23 23 22 22 23 25 25 27 27 27 28 28 24 21 22 21 17 17 17 13 12 15 18 18 19 19 18 18 19 21 22 23 22 20 20 20 20 19 20 20 20 19 19 18 18 18 19 19 19 20 20 19 19 19 20 21 22 25 27 28 31 33 35 35 35 37 41 39 32 28 30 32
17 18 19 21 23 26 26 25 24 22 20 21 22 22 22 22 22 23 24 24 25 26 25 25 26 25 24 24 22 19 18 17 15 14 17 20 20 20 20 20 20 20 21 21 22 22 20 19 19 20 20 20 20 20 20 20 19 19 19 20 21 20 19 20 22 23 24 24 23 22 24 25 25 25 27 28 30 31 32 37 41 39 32 29 33
12 13 14 16 19 23 26 27 27 24 21 21 22 22 22 22 22 21 21 21 21 22 23 23 24 26 25 24 23 21 19 18 17 17 19 21 21 21 22 23 22 20 19 19 20 20 20 18 17 19 22 22 20 20 21 21 20 20 18 18 19 20 21 23 23 24 25 26 25 23 23 23 23 24 26 26 26 27 28 31 36 40 37 31 30
10 11 11 12 15 18 22 26 28 27 24 22 23 23 23 22 22 20 19 19 19 20 21 23 24 24 24 23 24 23 21 20 20 20 21 22 22 23 24 25 24 21 19 19 19 19 19 18 17 20 24 23 20 20 21 21 21 20 17 16 18 19 20 21 22 23 23 23 24 25 24 24 23 24 26 27 27 28 30 30 30 36 40 38 34
10 11 12 14 16 18 21 24 28 28 26 24 23 23 22 21 21 20 19 18 18 19 20 22 24 24 22 22 24 25 23 22 22 22 22 23 23 23 24 24 23 22 21 19 18 18 18 17 19 22 24 22 21 21 22 21 20 19 16 16 18 18 19 21 22 21 20 20 23 26 26 25 25 25 25 27 29 30 32 30 28 31 36 41 40
10 12 13 15 18 20 21 23 26 26 26 24 22 21 21 21 21 21 20 19 18 19 20 22 24 24 23 23 24 25 24 24 24 23 23 23 22 23 24 23 21 21 22 20 18 17 18 19 22 23 23 21 20 21 22 21 20 18 17 17 18 18 20 20 17 15 15 16 18 21 22 22 24 26 28 29 29 30 31 30 29 29 31 35 38
10 11 13 14 16 18 20 21 22 23 24 23 22 21 21 21 21 21 21 20 20 20 21 22 23 23 22 22 22 22 23 24 25 24 23 22 21 22 22 21 20 20 22 22 21 20 21 22 23 23 22 21 21 21 21 20 19 17 17 17 18 18 18 16 12 11 12 13 14 16 17 19 22 26 28 29 29 30 31 32 32 32 32 34 35
10 10 11 13 14 15 16 18 19 20 22 22 21 21 21 22 22 22 22 22 22 23 23 23 22 21 21 20 20 21 21 21 22 23 22 21 21 22 21 19 19 19 20 21 22 22 23 23 23 23 22 21 20 21 20 19 19 17 15 15 15 15 14 13 11 11 11 11 12 14 16 18 20 21 22 23 24 26 28 29 30 32 34 35 35
10 9 8 10 12 14 15 17 18 19 21 22 21 21 21 22 22 21 21 22 23 24 24 23 21 20 20 21 22 23 20 18 18 19 20 20 19 19 18 17 17 17 18 18 19 19 20 22 23 23 22 20 20 21 20 19 18 15 13 12 12 12 14 14 12 12 11 10 11 13 15 17 18 17 16 17 19 21 22 23 25 27 31 34 35
11 10 8 7 9 12 15 17 18 19 21 22 22 22 22 22 22 22 23 24 25 25 24 23 22 22 22 22 23 21 18 17 17 17 17 17 14 12 13 14 14 14 14 13 13 13 15 18 20 20 19 18 19 18 17 16 14 11 11 11 11 14 16 15 13 12 11 10 10 11 12 13 13 13 13 13 14 15 17 18 19 21 24 27 30
13 12 11 10 8 9 12 15 18 19 20 21 23 23 23 24 24 25 25 26 26 25 23 22 23 24 23 21 19 18 17 18 18 18 18 18 15 13 14 14 14 14 15 14 15 16 17 17 17 15 13 13 14 13 12 12 10 9 11 12 11 12 13 13 13 12 10 8 8 8 8 9 9 9 10 10 10 10 11 13 15 16 19 22 25
16 15 14 13 11 10 11 13 16 19 20 20 21 22 23 23 24 26 25 24 24 23 22 22 23 22 21 19 18 19 19 19 19 20 20 19 18 16 16 16 17 18 18 18 19 19 18 16 16 14 12 11 11 11 11 12 10 10 12 12 11 11 12 11 11 11 9 6 5 6 7 7 7 8 9 9 8 8 8 10 11 14 18 21 23
17 16 15 15 15 14 12 12 14 16 18 18 18 19 20 21 23 25 25 23 22 21 21 22 22 22 21 20 20 22 22 21 21 21 20 18 18 17 17 18 18 18 18 17 17 16 15 14 15 14 13 12 11 11 12 12 11 11 12 12 12 11 10 9 9 9 7 5 4 5 6 5 4 5 7 6 5 6 7 7 8 12 17 20 21
20 18 16 16 18 18 15 14 15 15 16 17 18 18 18 19 21 23 23 22 21 21 21 21 21 21 21 21 22 24 24 23 21 20 19 18 18 17 17 18 18 18 18 17 17 15 14 14 15 15 14 13 12 12 12 11 11 13 12 11 11 10 8 9 9 8 6 6 5 4 5 5 4 3 4 4 5 5 6 6 7 11 15 19 21
22 22 19 17 18 20 19 18 18 18 17 17 18 18 18 19 19 20 22 23 23 22 22 22 21 21 22 22 23 25 25 22 19 19 18 18 18 17 17 19 19 19 18 18 17 14 13 14 15 15 14 13 12 13 13 11 11 12 12 11 11 9 9 10 9 5 4 6 5 4 5 6 5 4 4 5 6 7 7 8 9 11 14 17 20
21 23 22 19 18 20 21 21 20 20 20 19 19 19 19 19 19 19 21 23 24 23 23 23 22 22 22 22 22 24 24 21 19 19 19 19 19 19 19 19 19 20 20 19 16 14 13 14 15 14 14 14 13 13 13 12 12 12 12 11 11 9 10 10 8 5 5 5 4 4 5 5 5 6 7 8 8 8 9 10 12 13 16 18 21
19 22 23 23 21 20 20 21 21 21 21 22 22 22 21 21 22 22 21 21 22 22 21 21 21 20 21 21 22 22 22 20 20 19 19 20 20 20 20 20 20 21 21 20 17 15 14 15 15 15 15 15 14 13 13 13 13 13 13 12 11 10 10 10 9 8 7 5 4 5 5 5 6 7 8 8 9 9 11 12 13 14 16 20 22
18 20 22 23 24 23 22 21 21 22 22 23 23 24 25 26 27 26 23 20 20 20 19 19 19 18 18 19 20 21 21 20 20 20 20 21 21 21 21 21 19 18 18 17 16 16 16 15 16 16 16 16 15 14 13 14 14 14 14 13 12 12 11 10 10 9 7 6 6 6 5 6 8 9 9 9 9 9 11 12 13 14 16 18 20
20 20 22 22 23 25 24 23 23 22 23 24 24 23 25 27 27 26 23 21 20 19 18 18 19 20 20 19 19 20 21 21 21 21 21 22 22 22 22 20 18 17 17 16 16 16 16 16 16 17 17 17 16 15 15 15 14 14 15 14 13 13 12 11 11 10 8 7 7 7 6 7 9 10 11 10 10 10 11 13 13 14 15 16 17
25 23 24 23 23 25 26 26 25 23 22 23 23 22 22 23 25 25 23 21 21 21 19 18 19 19 19 19 18 19 21 22 22 22 23 23 23 23 23 22 20 18 17 17 16 16 16 16 17 17 17 17 17 16 16 16 15 15 15 16 15 15 14 14 13 13 11 9 8 8 8 8 9 10 10 10 10 11 12 13 13 13 14 16 17
30 27 25 25 24 25 27 27 27 26 23 23 23 24 24 23 24 24 23 22 21 21 19 18 19 19 17 17 19 20 21 23 24 23 24 25 25 24 24 23 21 20 18 17 17 17 18 18 18 18 18 17 17 17 17 17 16 15 15 16 16 16 16 15 14 13 13 12 11 10 9 8 9 10 9 8 9 10 11 13 14 15 16 18 18
29 27 25 24 24 25 26 28 29 28 25 24 24 25 26 26 25 24 23 21 20 19 18 19 21 20 18 18 20 20 21 22 22 21 21 22 22 22 23 22 20 20 19 18 17 17 18 18 18 18 18 18 18 17 17 17 17 17 16 16 16 16 16 15 14 13 13 13 14 13 10 8 9 10 10 9 9 10 11 13 14 14 16 17 17
27 25 23 22 23 23 24 27 29 29 27 26 25 25 26 27 25 23 21 20 20 19 19 19 20 19 19 20 21 21 19 19 19 19 19 20 20 20 20 20 20 20 20 18 17 17 18 18 18 19 19 19 18 18 17 17 17 18 18 17 17 16 16 15 14 13 12 13 14 15 14 11 10 10 11 11 11 11 12 13 14 14 15 16 17
24 22 19 19 22 23 24 26 28 29 29 28 27 27 27 27 26 24 22 21 20 19 19 19 19 18 19 21 21 20 18 19 19 19 19 19 19 20 20 19 19 20 20 18 17 17 17 17 18 19 19 19 19 18 18 18 18 18 18 18 18 17 17 16 15 14 13 13 14 16 15 13 11 11 11 12 12 12 11 12 13 14 15 16 17
23 21 18 16 19 24 25 25 26 28 30 30 30 29 28 28 27 26 24 23 23 21 20 20 20 19 20 22 21 19 20 21 21 20 19 19 19 20 20 19 19 20 20 19 18 17 16 17 17 19 20 20 20 19 19 18 18 19 19 19 18 18 17 16 15 14 14 14 15 15 15 14 13 13 12 12 13 13 12 12 13 13 14 15 17
20 19 18 17 18 22 25 26 25 27 30 31 31 31 29 29 29 27 24 24 24 24 23 22 21 20 21 24 23 21 21 23 23 21 20 20 20 20 20 19 19 20 20 20 19 18 17 17 17 18 20 21 22 22 21 20 19 19 20 20 20 19 19 17 17 16 16 16 15 16 16 15 15 14 14 14 14 14 14 14 14 13 14 15 16
19 18 17 16 16 18 21 24 26 26 28 30 32 33 32 31 31 30 27 25 26 27 27 27 26 24 23 25 26 25 23 24 25 24 22 21 21 21 21 20 20 20 21 21 20 20 20 19 18 18 19 22 24 25 26 24 22 21 21 21 21 21 21 19 18 17 17 16 16 16 16 16 15 15 15 15 15 15 15 15 15 15 15 16 17
16 16 16 16 17 17 18 20 23 25 26 28 31 32 33 33 33 33 32 30 29 30 30 30 30 28 25 25 26 26 25 25 25 24 23 22 21 20 20 20 20 21 22 21 21 22 23 22 20 19 19 20 23 25 27 27 27 26 26 25 23 22 21 20 18 17 18 18 18 18 18 18 17 16 15 14 14 15 15 16 16 16 16 16 17
16 15 15 16 18 20 19 19 21 24 26 27 28 30 31 32 34 36 36 34 34 34 33 32 31 31 29 27 26 26 27 27 26 24 23 22 21 19 19 19 19 20 21 21 23 25 25 24 22 21 20 19 20 23 25 27 28 29 30 30 28 26 23 21 19 18 19 20 20 20 21 20 19 18 17 16 16 16 17 17 17 17 17 17 18
18 18 18 18 17 18 19 20 22 25 27 27 28 29 30 31 32 35 37 37 36 36 36 34 32 32 31 30 28 28 29 29 27 24 23 22 21 20 20 19 19 20 20 21 23 26 26 25 23 22 20 20 20 21 23 25 27 29 31 32 33 31 29 26 23 21 21 21 22 22 23 22 21 20 19 18 18 18 18 18 19 19 19 19 20
19 21 22 20 17 17 19 21 24 27 27 26 27 27 28 30 31 33 35 36 37 36 36 35 34 32 31 31 30 29 29 29 28 26 24 23 22 21 21 20 20 20 19 20 22 25 27 26 25 23 21 20 20 21 22 23 25 27 30 31 33 33 32 30 28 26 25 24 24 24 24 24 24 23 22 20 20 20 20 19 20 21 22 22 23
19 21 22 22 21 20 21 22 24 26 26 25 26 26 27 28 30 31 32 34 35 35 35 35 34 32 31 30 29 29 29 30 29 28 26 25 24 23 22 22 22 22 20 20 21 23 25 26 27 26 25 23 21 21 21 22 23 25 27 29 31 31 32 31 31 30 29 28 27 27 27 27 27 26 25 24 24 23 22 22 21 22 23 24 26
19 20 21 22 24 24 24 24 24 24 25 25 25 26 26 27 29 30 31 32 32 33 34 34 33 31 30 29 28 28 28 29 29 29 28 27 26 25 25 26 26 25 23 22 22 23 24 25 25 26 26 26 25 23 22 22 23 23 24 25 27 28 29 29 31 32 32 31 30 29 29 29 29 29 28 28 27 27 26 25 25 25 25 25 25
Wind_Direction
222 222 219 215 213 212 211 211 210 210 211 212 210 208 208 208 210 215 218 218 214 213 213 213 215 217 217 219 221 224 228 232 237 239 240 243 248 253 255 255 256 255 255 258 258 256 254 251 249 248 248 249 250 248 247 249 248 248 250 250 249 248 247 248 254 259 259 261 266 267 260 256 255 254 257 253 243 257 270 268 262 256 250 246 241
231 231 228 222 216 212 210 211 212 214 214 214 214 211 210 211 214 218 221 220 215 211 210 212 216 218 219 220 221 224 226 228 233 236 238 239 242 245 247 248 251 254 256 257 257 257 256 254 253 250 248 248 247 246 247 248 245 245 249 249 249 248 247 249 255 259 259 257 261 268 267 264 259 255 254 251 242 247 255 258 261 258 248 241 238
234 233 232 229 222 215 210 209 211 214 214 216 216 215 214 215 217 220 222 220 213 208 208 209 212 214 215 217 219 222 226 227 229 232 235 236 238 239 240 240 241 244 249 255 258 259 257 255 255 252 251 252 250 246 246 246 244 245 247 247 248 249 246 247 251 255 259 259 256 260 265 266 264 262 258 252 245 245 247 248 251 253 249 239 235
231 232 233 232 227 218 211 208 210 211 213 216 218 216 214 214 217 220 219 214 208 206 206 206 206 207 207 209 212 216 221 224 224 224 226 227 229 232 232 233 240 244 247 250 254 256 256 255 257 257 255 255 254 251 249 248 246 247 249 248 248 249 249 250 253 254 257 259 257 256 260 262 263 263 256 252 248 242 243 247 246 244 245 238 235
232 232 232 232 230 222 215 213 214 215 216 219 218 217 216 216 218 217 211 208 207 205 203 200 198 198 197 197 202 208 213 217 219 220 224 224 227 233 236 240 247 250 252 254 255 255 254 253 254 257 257 256 255 254 254 252 249 249 253 252 249 250 252 254 257 257 257 260 259 257 258 259 259 257 247 245 240 229 238 247 241 239 241 235 235
237 234 229 226 225 223 221 222 224 222 221 222 223 220 218 217 216 211 205 203 203 201 197 194 190 189 190 189 192 199 203 205 209 215 222 227 234 242 246 251 255 257 259 262 264 264 262 260 257 255 253 254 256 256 255 255 253 251 253 254 251 250 251 251 254 256 259 261 261 259 258 256 256 253 245 241 230 224 237 240 230 232 236 233 238
242 234 223 215 215 214 219 228 232 227 222 226 229 223 215 213 212 207 202 199 197 194 193 193 190 188 189 191 191 195 198 198 201 211 217 222 233 245 254 262 267 270 270 270 270 270 269 267 264 261 258 256 255 254 252 252 253 252 252 254 254 252 251 251 251 253 258 260 260 258 256 255 254 250 245 240 229 229 244 242 228 226 228 233 241
246 233 216 211 213 211 215 227 232 227 223 228 231 222 213 212 211 205 201 198 196 195 195 197 196 193 194 197 196 199 206 206 202 207 214 221 236 251 262 270 276 281 281 280 278 275 272 269 266 263 261 259 256 254 251 248 247 247 248 250 253 253 253 252 250 251 254 258 259 257 254 254 252 246 242 236 226 227 241 244 239 236 232 234 237
245 233 215 211 215 214 215 224 226 221 221 227 230 222 216 216 214 208 203 200 197 195 196 200 200 198 199 203 204 206 213 214 209 208 212 224 240 252 262 269 277 283 285 285 282 278 276 274 271 266 261 257 255 255 255 253 251 249 248 248 251 253 253 251 251 251 252 254 257 256 253 253 250 244 238 233 231 234 238 240 241 240 235 234 234
238 232 219 211 212 214 217 221 219 216 217 222 225 221 218 218 218 212 205 202 202 201 201 201 202 202 202 206 212 214 217 220 218 215 215 223 237 250 262 272 281 289 292 291 289 285 282 280 278 274 268 261 257 255 256 256 255 253 251 250 251 252 252 251 250 249 250 253 256 255 253 252 251 247 240 237 241 243 238 234 233 229 225 224 224
234 231 224 215 209 210 216 220 219 217 218 221 222 219 216 220 223 216 206 205 209 209 206 204 205 206 205 208 217 219 220 223 219 215 219 226 235 249 264 275 287 296 300 300 298 293 288 284 279 275 273 270 264 259 256 254 253 254 254 252 253 253 254 255 253 250 250 251 254 255 254 254 252 249 247 244 244 243 239 234 227 220 220 220 219
233 227 223 217 209 207 213 218 220 220 221 225 224 219 218 223 224 218 215 218 218 212 209 208 209 210 208 208 215 218 221 224 220 216 221 229 238 253 267 279 289 297 301 303 302 298 292 287 279 271 270 268 263 259 257 255 254 255 254 252 253 255 256 258 259 258 256 254 253 254 254 255 256 254 250 245 241 243 244 238 228 224 225 226 228
231 224 219 216 211 209 210 214 220 224 223 223 220 217 219 222 220 219 224 227 219 211 211 211 210 213 214 212 213 217 222 227 224 221 225 233 245 258 269 277 287 294 299 302 304 303 296 288 281 274 271 268 264 261 261 262 265 267 264 260 257 256 257 258 260 261 260 259 257 254 253 253 255 257 254 249 245 245 245 237 227 228 232 232 237
228 224 220 217 216 216 214 215 220 224 222 220 217 216 218 219 220 222 225 224 217 214 217 217 214 214 217 216 213 215 223 227 223 223 230 241 253 262 269 276 284 290 297 300 302 303 298 290 282 274 268 267 266 261 258 260 265 270 271 269 265 262 261 260 260 260 261 260 259 258 256 255 254 253 252 252 250 246 247 243 232 233 238 240 243
228 227 227 225 224 224 223 222 223 225 223 219 217 217 218 219 221 223 221 221 222 223 223 222 219 218 218 217 213 215 224 228 223 228 237 246 257 266 271 277 283 287 293 297 298 300 298 291 284 275 267 264 259 253 252 259 264 267 269 271 269 269 269 266 263 263 263 263 263 261 260 258 256 255 252 251 250 246 251 254 246 242 244 241 240
231 231 233 234 234 233 231 228 228 228 224 221 219 219 218 218 218 218 219 222 225 226 226 223 220 218 217 218 216 219 229 233 229 235 245 251 259 267 273 279 284 286 289 291 290 292 293 288 282 275 269 264 260 258 259 265 271 276 279 278 275 273 273 273 271 268 265 264 264 263 262 260 258 256 253 251 249 246 249 255 249 246 245 240 236
233 234 235 237 239 240 239 235 234 231 226 224 224 222 221 219 216 215 218 222 224 226 227 224 218 214 214 219 222 225 232 237 237 240 247 253 260 267 274 280 282 283 286 288 287 286 283 279 275 272 268 264 260 262 266 269 273 280 286 285 280 275 277 280 281 278 272 266 262 261 262 262 261 260 257 253 249 244 243 248 250 249 246 239 236
234 234 236 238 239 241 241 239 238 235 230 228 227 227 227 224 217 217 221 224 227 230 230 227 222 217 215 222 227 229 234 239 242 245 250 256 261 267 275 278 276 278 282 284 285 284 279 276 273 267 263 261 259 262 266 270 274 282 288 287 280 278 285 288 285 280 277 274 270 265 263 262 260 259 258 256 253 247 241 240 246 253 252 244 240
235 235 237 237 238 241 242 241 241 239 236 232 229 228 229 225 219 221 225 226 229 234 235 231 226 222 221 226 228 229 235 241 247 254 257 259 262 268 275 275 271 274 278 279 280 280 276 276 278 272 262 258 259 262 265 269 274 281 287 287 284 284 289 287 279 275 273 273 273 270 267 265 263 262 260 257 255 252 245 239 238 243 248 245 242
233 233 236 236 237 239 241 241 242 241 237 234 230 228 228 224 220 221 224 224 226 231 230 228 229 231 229 226 226 227 234 242 251 260 262 262 265 270 274 274 271 272 276 276 275 274 270 269 276 278 271 262 259 260 262 265 272 279 284 287 288 288 287 283 278 278 277 274 273 268 263 261 260 261 262 259 256 253 249 243 236 235 240 243 241
218 221 227 231 236 240 241 241 242 241 237 232 230 229 226 224 222 222 221 222 225 228 227 226 230 231 226 223 225 229 233 241 252 260 263 265 267 270 275 278 277 273 272 272 270 269 268 267 272 275 273 269 263 260 261 263 269 275 280 285 287 287 287 287 285 284 282 281 281 276 269 264 259 255 253 255 257 254 251 246 237 232 233 236 238
219 226 233 238 242 245 245 244 242 240 237 231 228 228 226 224 223 223 223 225 228 232 234 229 226 225 224 226 231 233 233 241 251 260 264 265 268 272 277 283 283 276 270 267 266 265 264 265 268 268 267 268 265 262 261 262 266 273 278 280 282 285 289 293 293 290 286 283 282 279 274 268 265 262 257 255 255 254 253 252 244 234 231 232 236
239 249 257 259 256 254 251 249 245 240 235 230 227 227 225 222 221 223 226 230 231 233 232 225 220 222 226 231 234 235 238 244 252 259 264 266 269 275 281 285 285 281 274 265 262 263 263 264 266 264 262 266 267 262 260 261 266 272 275 276 279 284 291 294 295 291 285 281 279 278 274 269 264 262 262 259 256 254 255 254 251 242 236 235 237
251 258 262 263 261 258 255 251 247 240 234 230 226 223 222 221 221 225 229 231 230 227 222 218 219 223 228 233 237 239 244 250 254 258 264 266 271 279 284 285 285 283 278 269 262 260 260 257 256 257 262 269 268 260 257 260 266 272 274 275 277 284 291 292 290 285 280 278 277 275 272 268 262 258 258 259 258 257 255 252 249 245 241 238 237
254 260 264 263 260 257 251 245 242 236 231 228 224 220 220 221 223 227 230 228 223 217 215 217 221 224 229 235 239 241 246 252 258 262 264 267 275 283 285 285 287 286 282 276 268 263 260 257 255 258 267 273 268 259 257 260 263 266 270 273 278 285 289 287 280 277 278 276 274 272 268 265 264 261 259 258 257 256 254 251 248 246 242 239 238
250 260 268 264 257 251 244 237 234 230 226 226 223 220 221 224 226 229 230 227 219 213 213 218 222 226 231 234 236 239 244 250 258 263 264 267 277 282 281 282 286 286 283 278 274 270 267 265 263 264 269 273 266 258 258 263 266 268 271 277 285 287 283 277 273 275 278 274 271 272 269 265 265 265 261 256 254 252 249 248 246 243 241 239 237
242 256 267 260 250 243 233 226 225 223 222 222 221 219 219 223 226 227 226 222 215 210 213 217 221 226 232 235 239 244 247 248 251 255 260 268 276 279 279 282 287 288 285 282 280 279 276 271 267 265 267 271 266 258 258 266 273 277 281 287 291 282 269 266 267 269 271 273 274 274 272 269 268 266 261 256 252 248 244 242 240 239 239 237 234
239 247 255 252 245 239 231 224 219 218 219 219 218 217 216 218 223 224 219 215 212 211 214 218 223 229 236 241 246 249 248 247 246 243 248 257 260 262 271 281 287 291 292 288 285 285 281 278 275 269 266 266 263 258 260 268 273 276 275 274 272 268 269 276 283 279 273 271 273 278 282 282 277 270 264 258 250 244 240 238 238 239 240 238 233
238 241 247 248 244 236 232 226 218 215 216 216 217 219 219 222 226 224 217 213 214 216 218 221 228 237 244 246 247 245 244 245 245 241 245 255 256 251 257 265 268 272 276 274 270 270 270 271 270 267 261 258 257 255 258 264 266 267 267 265 261 259 265 277 284 281 273 267 272 285 297 298 290 278 268 262 256 248 241 240 241 239 237 235 231
241 241 243 245 244 240 233 227 221 219 221 222 223 225 227 226 224 221 217 215 216 220 225 230 236 245 250 247 243 244 246 246 244 246 254 263 262 258 262 267 268 271 276 278 275 272 269 262 256 253 252 250 249 248 251 254 257 256 259 265 266 259 255 259 265 267 266 263 266 281 293 295 292 285 275 265 258 248 236 234 237 234 230 228 224
247 244 241 241 245 245 236 228 226 225 227 229 228 228 230 226 219 216 219 221 224 229 234 239 244 248 249 247 246 248 250 249 249 254 260 262 260 262 269 274 276 279 283 284 279 274 266 255 247 244 243 243 244 246 247 250 253 249 246 254 263 261 259 258 254 253 261 267 263 269 280 282 284 287 279 258 235 227 221 218 223 223 220 219 216
251 247 243 242 246 247 239 231 231 229 226 228 228 226 228 226 220 220 225 229 235 239 241 244 245 242 239 242 244 247 251 253 254 257 258 256 258 264 270 275 278 279 279 279 277 271 258 248 246 243 239 240 244 246 245 246 248 245 241 246 252 252 257 260 249 237 242 254 255 262 269 261 249 257 260 232 196 182 180 185 200 213 213 211 207
252 250 246 243 245 249 245 238 235 232 228 228 228 227 227 227 224 226 229 231 234 237 239 243 244 237 235 240 243 247 252 254 253 254 253 252 256 263 268 272 275 275 274 274 273 267 253 244 243 242 239 240 243 245 245 247 245 241 240 242 243 242 246 250 242 223 218 231 232 234 244 246 238 224 215 204 179 157 153 161 175 192 201 198 191
252 250 249 245 242 246 248 243 239 237 234 231 231 229 228 228 227 228 231 234 237 238 238 239 240 237 238 242 245 248 251 250 248 250 250 250 254 260 264 268 271 272 271 269 263 255 247 242 240 238 237 238 241 244 247 247 242 237 235 233 230 233 241 241 230 217 223 224 214 212 220 226 226 213 200 192 178 161 154 157 161 169 175 174 169
253 249 250 248 244 244 246 244 241 240 237 235 235 233 232 233 234 233 235 238 241 244 243 240 237 239 242 244 247 249 250 246 244 247 248 249 252 256 261 266 270 271 273 270 261 250 243 239 237 235 233 234 239 244 247 246 240 232 229 229 226 225 230 230 222 220 224 219 210 211 209 206 209 202 191 190 187 179 170 166 165 166 166 163 161
261 250 247 249 247 244 244 244 243 242 241 239 238 238 238 240 241 242 242 240 237 240 244 242 238 240 244 245 244 243 241 238 240 244 247 248 250 253 259 264 265 264 266 267 259 248 240 235 235 234 232 233 237 241 245 247 243 232 225 224 223 220 219 220 220 220 220 220 225 225 211 201 201 197 191 196 200 198 196 190 185 183 181 177 173
268 256 244 246 248 245 243 244 243 245 246 246 245 242 240 240 242 242 242 238 233 232 237 240 240 243 245 245 242 236 233 233 236 240 243 247 249 252 256 257 254 252 255 256 249 243 238 234 232 232 232 232 235 239 242 244 242 233 223 219 219 220 218 218 220 221 219 220 227 229 221 212 207 200 197 195 190 191 203 204 196 192 194 192 186
265 263 246 242 246 246 245 245 244 245 247 249 248 244 238 236 238 237 233 230 229 230 234 236 237 239 243 246 244 237 231 230 233 237 240 245 248 251 256 256 252 250 252 251 245 240 236 232 230 230 231 231 232 236 239 240 237 230 222 218 219 221 222 223 226 226 223 220 221 223 220 218 216 211 206 196 185 184 194 197 191 188 189 187 184
260 263 251 243 244 244 244 245 244 244 245 246 247 245 240 236 234 232 228 226 226 230 233 234 235 237 240 240 242 241 236 233 235 238 242 247 250 253 255 254 249 246 247 247 244 240 236 233 230 229 228 229 231 233 234 234 231 226 221 220 221 222 224 227 231 230 226 221 218 217 215 212 214 219 218 206 195 193 195 194 193 193 191 185 179
256 259 255 249 246 244 242 242 242 242 242 242 243 244 243 240 235 229 226 226 226 228 230 233 237 242 240 235 242 251 247 237 235 240 244 247 250 252 250 246 242 241 244 245 242 240 238 235 233 230 229 228 229 229 230 230 227 224 221 220 221 223 225 228 229 230 227 221 215 216 219 217 212 213 217 213 204 199 198 197 198 201 201 194 185
255 257 259 255 251 249 245 240 238 237 237 239 240 240 240 240 236 229 225 226 227 229 231 231 236 242 241 239 247 258 251 237 237 246 249 246 245 245 243 239 237 239 241 242 241 241 239 237 234 232 230 228 227 227 229 229 225 223 222 220 219 222 225 226 226 226 225 220 218 220 223 224 219 212 211 209 204 201 201 201 202 205 205 200 195
256 260 267 262 255 252 247 238 235 234 235 236 237 236 237 238 236 231 228 228 228 229 229 229 232 237 239 240 249 255 247 235 237 245 248 246 243 242 240 238 237 237 239 240 241 241 241 238 235 232 230 228 226 225 226 227 224 221 220 220 219 220 221 224 226 225 219 217 219 220 218 217 218 215 209 206 204 202 201 199 200 203 203 202 203
256 260 267 265 256 251 247 241 237 235 234 235 235 235 235 236 235 233 231 230 229 228 227 228 231 233 234 236 244 249 243 234 232 237 241 243 243 242 242 241 238 237 238 239 241 241 241 240 238 235 232 230 228 225 225 225 224 221 219 218 218 219 220 222 223 220 216 215 217 216 212 210 213 216 213 207 204 204 202 198 196 198 199 200 204
256 257 262 266 261 254 250 247 244 239 235 235 236 236 235 234 233 232 231 231 230 228 228 228 229 229 230 233 239 244 242 236 234 234 237 239 241 243 243 243 241 238 237 238 239 240 241 243 243 239 235 233 231 230 227 225 223 221 220 218 216 216 218 219 219 218 217 214 213 212 210 208 209 214 218 216 212 211 212 211 206 202 201 200 202
257 254 259 267 267 262 258 256 254 248 241 238 237 237 236 234 233 232 232 231 232 232 232 232 231 230 230 234 240 245 245 241 239 237 237 237 240 243 244 245 243 239 236 236 238 241 244 248 249 246 241 239 239 238 235 230 224 220 217 217 217 216 217 218 220 221 220 215 209 208 210 210 210 213 218 221 220 219 221 222 219 216 214 213 211
277 267 266 271 272 269 265 262 260 257 251 245 240 238 237 236 235 234 233 233 234 235 236 236 237 237 236 237 241 245 246 242 238 237 237 238 240 242 244 245 243 239 236 235 238 244 249 252 252 251 250 249 248 247 244 239 232 226 221 218 217 218 219 219 219 220 221 217 211 209 210 212 213 215 221 227 229 228 228 228 226 223 222 222 222
302 289 284 287 284 276 268 263 262 263 260 252 244 241 239 237 237 237 237 236 237 238 239 240 242 244 244 242 240 242 246 246 239 233 234 237 237 238 242 242 240 238 237 235 237 244 249 251 251 252 255 256 253 250 248 244 239 234 229 224 220 219 218 216 214 216 220 220 217 214 214 214 215 218 225 231 235 236 235 235 234 232 230 228 228
298 295 296 298 291 278 269 264 264 267 266 258 250 246 243 241 240 241 241 240 240 241 243 244 245 247 249 248 244 242 246 248 244 235 233 235 235 234 236 237 237 236 237 236 238 242 245 247 248 251 254 255 254 252 250 247 242 239 236 231 227 224 222 218 214 214 217 220 220 219 219 220 222 225 229 232 234 236 237 236 236 235 233 232 233
290 292 295 296 292 285 280 273 265 263 263 262 258 254 252 249 246 245 245 245 244 244 245 246 247 247 249 251 249 245 245 247 245 237 232 233 234 232 232 233 235 236 235 235 237 241 242 243 246 248 251 253 254 252 251 249 244 241 240 237 233 230 228 225 221 220 220 222 223 223 222 223 226 229 231 231 234 237 239 239 239 239 237 236 235
290 290 291 290 287 287 284 275 263 255 254 257 259 260 260 259 256 253 250 249 248 246 245 245 246 246 247 249 249 247 246 246 246 241 234 232 233 232 230 231 236 238 235 233 235 240 242 243 245 246 248 250 251 251 251 251 247 244 243 241 238 235 232 230 227 226 225 226 226 227 226 226 228 230 231 232 234 237 240 243 244 245 245 244 241
291 292 290 287 285 283 279 273 266 258 254 255 259 261 262 263 262 259 255 253 251 249 247 245 244 244 246 247 248 248 247 247 247 244 238 234 232 231 231 235 241 242 238 233 234 238 241 243 246 247 247 247 248 250 250 251 250 247 245 244 241 238 236 234 232 230 229 228 228 229 229 230 231 233 235 236 237 239 241 243 245 246 249 251 250
Height
1517 1519 1520 1521 1522 1523 1524 1525 1527 1528 1529 1530 1531 1532 1533 1533 1535 1536 1536 1537 1537 1538 1539 1539 1540 1540 1541 1541 1541 1541 1542 1543 1544 1544 1545 1545 1545 1545 1546 1546 1547 1547 1547 1547 1546 1546 1546 1546 1546 1547 1547 1547 1546 1546 1547 1546 1546 1547 1547 1547 1547 1547 1547 1547 1546 1546 1547 1547 1547 1547 1548 1548 1548 1549 1547 1547 1550 1551 1552 1554 1554 1554 1555 1555 1556
1514 1516 1517 1518 1519 1520 1522 1523 1524 1525 1526 1527 1528 1529 1530 1531 1532 1533 1534 1535 1535 1535 1536 1536 1537 1538 1539 1539 1540 1540 1540 1541 1542 1542 1543 1543 1543 1543 1543 1544 1544 1544 1544 1545 1544 1544 1544 1544 1544 1545 1545 1544 1544 1544 1544 1544 1544 1544 1544 1544 1544 1543 1544 1545 1544 1544 1544 1545 1545 1544 1545 1545 1545 1547 1545 1544 1547 1549 1551 1552 1552 1552 1553 1553 1553
1512 1513 1514 1515 1516 1518 1519 1520 1522 1522 1523 1524 1525 1526 1527 1527 1529 1529 1530 1532 1532 1533 1533 1534 1534 1535 1536 1537 1537 1538 1539 1539 1540 1541 1541 1542 1542 1542 1541 1542 1542 1542 1542 1543 1543 1542 1542 1542 1542 1542 1542 1541 1541 1541 1541 1541 1541 1541 1542 1541 1541 1541 1541 1542 1541 1541 1541 1542 1543 1542 1542 1542 1541 1543 1544 1541 1542 1546 1548 1549 1550 1549 1549 1550 1550
1509 1510 1511 1512 1513 1515 1516 1517 1518 1519 1520 1521 1521 1523 1524 1525 1526 1527 1528 1529 1530 1530 1531 1531 1532 1533 1533 1534 1534 1535 1536 1537 1538 1538 1539 1539 1540 1541 1540 1540 1540 1539 1539 1540 1540 1540 1540 1540 1540 1539 1539 1538 1538 1539 1539 1539 1539 1539 1539 1539 1539 1539 1539 1539 1539 1539 1539 1539 1540 1540 1540 1540 1539 1541 1542 1539 1538 1542 1544 1546 1547 1547 1547 1547 1547
1505 1506 1507 1509 1510 1511 1513 1513 1514 1515 1516 1517 1518 1520 1522 1523 1524 1525 1527 1528 1528 1529 1529 1530 1530 1531 1531 1532 1532 1532 1533 1535 1536 1537 1537 1537 1538 1538 1538 1537 1537 1537 1537 1537 1537 1537 1537 1537 1537 1537 1537 1536 1536 1536 1536 1536 1536 1536 1535 1536 1537 1537 1536 1536 1536 1537 1537 1536 1536 1538 1538 1537 1537 1537 1539 1538 1537 1539 1540 1542 1543 1543 1544 1544 1544
1502 1503 1504 1505 1506 1508 1509 1510 1511 1512 1513 1515 1516 1518 1520 1521 1522 1523 1524 1526 1527 1528 1529 1529 1529 1530 1530 1530 1530 1530 1531 1532 1534 1535 1536 1535 1535 1535 1535 1535 1535 1535 1535 1534 1534 1534 1534 1534 1534 1534 1534 1533 1533 1533 1533 1534 1533 1533 1533 1533 1534 1534 1534 1534 1534 1534 1534 1533 1534 1535 1535 1535 1535 1535 1536 1537 1536 1536 1537 1538 1539 1539 1540 1541 1541
1498 1500 1501 1502 1504 1504 1505 1506 1507 1509 1510 1512 1514 1516 1517 1519 1520 1521 1522 1523 1524 1525 1527 1528 1528 1529 1529 1529 1529 1529 1529 1530 1532 1533 1534 1533 1533 1533 1533 1533 1533 1532 1532 1532 1532 1532 1531 1531 1531 1531 1531 1531 1531 1530 1530 1531 1530 1530 1530 1530 1531 1531 1531 1531 1531 1531 1531 1531 1531 1531 1532 1532 1532 1533 1533 1534 1534 1533 1533 1534 1535 1536 1537 1537 1538
1495 1496 1498 1499 1500 1501 1502 1503 1504 1506 1508 1509 1511 1513 1514 1515 1517 1518 1520 1521 1522 1523 1525 1526 1527 1527 1528 1527 1527 1527 1527 1528 1529 1531 1532 1531 1531 1531 1531 1531 1531 1530 1530 1529 1529 1528 1528 1528 1527 1527 1527 1527 1527 1527 1527 1527 1527 1527 1527 1527 1528 1528 1528 1529 1529 1528 1528 1528 1528 1528 1529 1529 1529 1530 1531 1530 1530 1529 1529 1530 1531 1533 1533 1534 1535
1492 1493 1495 1496 1497 1499 1499 1500 1501 1503 1505 1506 1508 1509 1511 1512 1514 1516 1517 1519 1520 1521 1522 1524 1525 1525 1525 1525 1525 1525 1525 1525 1527 1528 1529 1529 1529 1529 1529 1529 1529 1528 1527 1527 1526 1525 1525 1524 1523 1522 1522 1522 1522 1523 1523 1523 1523 1523 1524 1524 1525 1525 1526 1526 1525 1525 1526 1525 1525 1525 1525 1525 1525 1527 1528 1526 1526 1527 1527 1528 1529 1530 1530 1531 1532
1490 1490 1492 1493 1495 1496 1497 1498 1499 1500 1501 1503 1505 1506 1508 1509 1511 1513 1514 1516 1517 1518 1520 1521 1522 1523 1523 1523 1522 1522 1523 1523 1524 1525 1526 1526 1527 1527 1527 1527 1526 1526 1525 1524 1523 1522 1522 1521 1520 1519 1518 1517 1518 1519 1519 1520 1519 1520 1520 1521 1521 1522 1522 1522 1522 1522 1522 1522 1522 1522 1521 1521 1522 1523 1524 1523 1523 1524 1524 1525 1526 1527 1527 1527 1528
1488 1488 1489 1491 1493 1494 1495 1495 1496 1497 1498 1500 1502 1504 1505 1505 1507 1509 1511 1513 1514 1516 1517 1518 1519 1520 1520 1520 1520 1520 1521 1521 1522 1522 1523 1524 1524 1524 1524 1524 1524 1523 1522 1521 1521 1520 1519 1518 1518 1518 1516 1515 1514 1515 1515 1515 1516 1516 1516 1517 1517 1518 1518 1518 1518 1518 1519 1519 1519 1519 1518 1518 1518 1519 1520 1521 1520 1519 1519 1520 1522 1523 1522 1522 1523
1485 1486 1487 1488 1490 1491 1492 1493 1493 1494 1495 1497 1498 1500 1501 1502 1504 1506 1508 1509 1511 1513 1514 1515 1516 1517 1517 1517 1518 1518 1518 1519 1519 1520 1521 1521 1521 1522 1522 1522 1521 1521 1520 1519 1518 1517 1516 1516 1515 1515 1514 1513 1512 1512 1511 1512 1512 1512 1512 1513 1513 1513 1514 1514 1514 1515 1515 1515 1515 1515 1515 1515 1515 1515 1516 1517 1516 1515 1515 1516 1519 1520 1518 1518 1519
1483 1484 1485 1486 1487 1488 1489 1490 1491 1491 1492 1494 1495 1497 1498 1499 1500 1502 1504 1505 1508 1510 1511 1512 1513 1513 1514 1515 1515 1516 1516 1516 1517 1518 1518 1518 1519 1519 1519 1519 1519 1519 1518 1516 1516 1514 1514 1513 1512 1512 1512 1511 1510 1510 1509 1509 1509 1509 1509 1509 1509 1510 1510 1510 1510 1510 1511 1511 1510 1510 1511 1512 1512 1512 1512 1512 1512 1512 1511 1513 1516 1516 1515 1516 1516
1481 1481 1482 1484 1484 1485 1486 1487 1488 1489 1489 1491 1492 1493 1495 1496 1497 1498 1500 1502 1504 1506 1507 1508 1509 1511 1511 1512 1513 1514 1514 1514 1515 1515 1515 1516 1516 1516 1517 1517 1516 1516 1515 1514 1513 1512 1511 1510 1510 1509 1509 1509 1509 1508 1508 1508 1508 1507 1506 1506 1506 1506 1506 1506 1506 1506 1506 1506 1505 1505 1507 1508 1508 1508 1509 1509 1509 1509 1509 1510 1512 1512 1512 1512 1512
1478 1479 1480 1481 1481 1482 1483 1484 1485 1486 1486 1488 1489 1490 1492 1493 1494 1495 1497 1499 1500 1503 1504 1505 1507 1508 1509 1510 1511 1511 1511 1512 1512 1513 1513 1513 1514 1514 1514 1514 1513 1513 1512 1511 1510 1509 1508 1507 1507 1506 1506 1506 1506 1506 1505 1505 1505 1504 1504 1503 1503 1502 1502 1502 1502 1502 1502 1501 1501 1500 1502 1503 1503 1504 1505 1506 1506 1507 1507 1507 1509 1509 1508 1508 1508
1476 1476 1477 1478 1478 1479 1480 1480 1481 1482 1484 1485 1486 1487 1489 1490 1491 1493 1494 1496 1498 1499 1501 1502 1504 1506 1506 1508 1509 1509 1509 1509 1510 1510 1511 1511 1511 1511 1511 1511 1511 1510 1510 1509 1508 1507 1506 1505 1504 1503 1503 1503 1503 1502 1501 1502 1501 1500 1500 1499 1499 1499 1498 1498 1498 1498 1498 1497 1497 1496 1496 1497 1497 1498 1500 1501 1502 1504 1504 1505 1506 1505 1504 1504 1505
1473 1474 1474 1475 1476 1476 1477 1477 1478 1479 1481 1482 1483 1484 1486 1487 1488 1490 1491 1493 1494 1496 1498 1500 1501 1503 1504 1505 1506 1507 1507 1507 1508 1508 1508 1509 1509 1509 1509 1509 1508 1508 1507 1507 1506 1505 1504 1503 1502 1501 1500 1500 1500 1499 1498 1499 1498 1497 1497 1496 1496 1496 1495 1494 1494 1493 1493 1493 1492 1492 1492 1492 1492 1492 1493 1495 1497 1499 1501 1501 1501 1501 1501 1501 1502
1470 1470 1471 1472 1473 1473 1474 1475 1475 1476 1477 1478 1480 1481 1482 1484 1486 1487 1488 1490 1491 1493 1495 1496 1497 1499 1501 1502 1504 1505 1505 1505 1505 1506 1506 1506 1506 1507 1507 1507 1506 1506 1505 1504 1504 1503 1502 1500 1499 1498 1498 1497 1496 1496 1496 1496 1495 1495 1494 1493 1493 1492 1492 1491 1491 1490 1489 1488 1488 1488 1487 1487 1487 1487 1488 1488 1490 1493 1495 1495 1497 1498 1497 1497 1498
1466 1468 1469 1470 1470 1471 1471 1472 1473 1473 1475 1476 1477 1478 1479 1481 1483 1484 1485 1487 1489 1490 1492 1493 1494 1496 1498 1499 1500 1502 1502 1502 1502 1503 1503 1503 1504 1504 1504 1504 1504 1504 1503 1502 1501 1500 1499 1497 1496 1495 1495 1494 1494 1493 1493 1493 1492 1492 1491 1490 1489 1489 1488 1488 1487 1486 1486 1485 1484 1484 1483 1483 1483 1482 1483 1483 1484 1486 1487 1489 1493 1494 1493 1493 1495
1464 1465 1466 1467 1467 1468 1468 1469 1470 1471 1472 1473 1474 1475 1476 1478 1480 1481 1482 1484 1485 1487 1488 1490 1492 1493 1494 1495 1497 1498 1499 1498 1499 1500 1500 1500 1501 1501 1501 1501 1501 1501 1500 1499 1498 1497 1496 1495 1494 1493 1492 1491 1491 1490 1490 1490 1489 1489 1488 1487 1486 1485 1485 1484 1483 1482 1481 1480 1480 1480 1479 1479 1479 1479 1479 1479 1479 1480 1481 1483 1486 1488 1489 1490 1490
1461 1463 1463 1464 1465 1465 1465 1466 1466 1468 1469 1470 1471 1473 1474 1475 1477 1478 1479 1481 1482 1484 1485 1486 1488 1490 1490 1491 1492 1494 1496 1496 1496 1497 1497 1497 1497 1498 1498 1498 1498 1497 1496 1496 1495 1494 1494 1493 1493 1491 1490 1488 1488 1488 1487 1487 1486 1486 1485 1484 1483 1483 1481 1480 1479 1479 1477 1476 1475 1475 1475 1475 1476 1476 1476 1475 1476 1476 1476 1477 1480 1482 1485 1486 1485
1459 1460 1461 1462 1462 1462 1463 1463 1463 1464 1466 1467 1468 1470 1471 1472 1474 1475 1477 1478 1479 1481 1482 1483 1485 1486 1487 1487 1489 1491 1492 1493 1493 1493 1494 1494 1494 1494 1494 1494 1494 1494 1493 1492 1492 1491 1491 1491 1491 1489 1487 1486 1485 1485 1485 1484 1483 1483 1483 1482 1481 1480 1479 1477 1476 1475 1474 1473 1472 1471 1471 1471 1471 1471 1471 1472 1472 1472 1472 1473 1475 1476 1478 1480 1481
1457 1458 1459 1460 1460 1460 1460 1460 1460 1461 1462 1463 1465 1467 1468 1470 1471 1472 1474 1475 1476 1478 1478 1480 1482 1483 1484 1485 1486 1487 1489 1490 1490 1490 1490 1491 1491 1491 1491 1490 1490 1489 1489 1489 1489 1489 1489 1489 1488 1486 1484 1483 1483 1482 1482 1481 1481 1480 1480 1479 1478 1477 1476 1475 1474 1472 1471 1470 1469 1468 1467 1467 1467 1467 1467 1468 1468 1469 1468 1469 1470 1471 1473 1475 1477
1456 1456 1457 1457 1457 1457 1457 1457 1457 1457 1458 1460 1462 1464 1466 1467 1468 1470 1471 1472 1473 1475 1476 1477 1478 1480 1481 1482 1483 1485 1486 1486 1486 1487 1487 1487 1487 1488 1487 1487 1487 1486 1485 1485 1485 1486 1486 1485 1484 1482 1481 1481 1480 1479 1479 1478 1478 1478 1477 1476 1475 1475 1474 1473 1471 1470 1469 1468 1466 1465 1464 1464 1463 1463 1463 1463 1463 1464 1464 1465 1466 1467 1468 1469 1472
1454 1454 1454 1454 1454 1454 1454 1454 1454 1454 1456 1457 1459 1461 1463 1464 1465 1467 1468 1469 1470 1472 1473 1475 1476 1477 1479 1480 1481 1483 1483 1483 1483 1484 1484 1484 1484 1484 1484 1484 1483 1483 1482 1481 1481 1481 1481 1480 1480 1479 1478 1478 1477 1476 1476 1476 1476 1475 1475 1474 1474 1473 1472 1471 1470 1469 1467 1466 1464 1462 1461 1460 1459 1458 1458 1458 1459 1459 1459 1460 1461 1463 1463 1464 1466
1452 1452 1452 1452 1451 1451 1451 1451 1452 1452 1453 1455 1457 1458 1460 1461 1463 1464 1465 1466 1467 1469 1471 1472 1474 1475 1477 1478 1479 1481 1481 1481 1481 1481 1481 1481 1481 1482 1481 1481 1481 1480 1479 1478 1478 1477 1477 1476 1476 1476 1475 1475 1474 1474 1474 1473 1473 1472 1472 1472 1472 1471 1471 1470 1468 1467 1465 1464 1462 1460 1458 1457 1455 1454 1454 1454 1454 1454 1454 1455 1456 1458 1459 1460 1462
1450 1450 1450 1450 1449 1449 1449 1449 1450 1451 1451 1453 1454 1456 1457 1459 1460 1461 1462 1464 1465 1466 1468 1470 1471 1473 1474 1475 1476 1477 1478 1479 1479 1479 1479 1479 1479 1479 1479 1478 1478 1477 1476 1475 1475 1474 1474 1473 1473 1472 1472 1472 1471 1471 1471 1471 1470 1470 1470 1470 1470 1470 1470 1468 1466 1464 1463 1461 1459 1457 1455 1454 1453 1452 1451 1451 1450 1450 1450 1451 1452 1452 1454 1456 1457
1449 1449 1449 1448 1448 1448 1448 1448 1448 1449 1450 1451 1452 1454 1455 1456 1456 1457 1459 1460 1462 1464 1465 1467 1468 1469 1470 1472 1473 1474 1475 1476 1476 1477 1477 1477 1477 1477 1477 1476 1475 1474 1474 1473 1473 1473 1472 1471 1470 1469 1469 1469 1469 1469 1469 1469 1468 1469 1469 1469 1469 1469 1467 1465 1463 1462 1461 1459 1457 1455 1453 1452 1450 1449 1449 1448 1447 1447 1447 1448 1448 1449 1450 1452 1453
1447 1447 1447 1447 1447 1447 1447 1447 1447 1448 1448 1449 1450 1451 1452 1453 1454 1455 1456 1458 1459 1461 1463 1464 1465 1466 1467 1469 1470 1471 1472 1472 1473 1473 1474 1474 1474 1475 1475 1475 1474 1473 1472 1472 1472 1471 1471 1469 1469 1468 1467 1467 1467 1467 1468 1468 1467 1467 1467 1467 1467 1466 1465 1464 1463 1461 1459 1457 1455 1453 1451 1450 1449 1448 1447 1446 1445 1445 1445 1446 1446 1447 1448 1449 1450
1445 1446 1445 1445 1445 1446 1446 1446 1446 1446 1447 1448 1448 1449 1450 1450 1451 1453 1454 1456 1457 1459 1460 1461 1462 1463 1465 1466 1467 1468 1468 1469 1469 1470 1470 1470 1471 1471 1471 1472 1471 1471 1470 1469 1469 1469 1468 1468 1467 1466 1466 1466 1465 1466 1466 1466 1465 1465 1465 1465 1464 1463 1463 1462 1462 1460 1457 1455 1454 1452 1451 1449 1448 1447 1447 1446 1444 1444 1444 1445 1445 1446 1447 1448 1449
1443 1443 1443 1444 1444 1444 1445 1445 1445 1445 1446 1446 1447 1448 1448 1448 1449 1451 1452 1454 1455 1457 1458 1459 1459 1460 1462 1463 1464 1464 1465 1466 1466 1466 1467 1467 1467 1468 1468 1468 1467 1467 1467 1466 1466 1466 1465 1465 1465 1464 1464 1464 1464 1464 1464 1464 1464 1463 1463 1463 1463 1462 1460 1460 1460 1459 1457 1455 1453 1452 1450 1449 1448 1447 1447 1446 1445 1444 1444 1445 1445 1446 1446 1447 1448
1441 1441 1442 1442 1442 1442 1443 1443 1443 1444 1444 1445 1445 1446 1446 1447 1447 1449 1450 1451 1453 1454 1455 1455 1456 1457 1458 1460 1460 1460 1461 1462 1463 1463 1463 1464 1464 1464 1464 1464 1464 1464 1464 1463 1463 1463 1463 1463 1463 1462 1462 1462 1462 1462 1462 1462 1461 1461 1461 1462 1462 1461 1460 1459 1458 1457 1456 1455 1454 1452 1450 1449 1448 1448 1448 1447 1446 1446 1445 1445 1446 1446 1447 1448 1448
1437 1438 1439 1439 1439 1439 1440 1440 1441 1442 1442 1443 1443 1443 1444 1445 1445 1446 1447 1448 1449 1450 1451 1452 1453 1454 1455 1456 1457 1457 1457 1459 1460 1460 1460 1461 1461 1461 1461 1461 1461 1461 1461 1460 1460 1460 1460 1460 1460 1460 1460 1460 1460 1460 1459 1459 1459 1459 1459 1460 1460 1460 1459 1458 1456 1455 1455 1454 1454 1453 1451 1450 1448 1448 1448 1448 1448 1447 1447 1447 1447 1448 1448 1449 1449
1433 1434 1435 1436 1437 1437 1437 1437 1438 1439 1439 1440 1440 1441 1442 1442 1443 1444 1444 1445 1446 1447 1447 1448 1449 1450 1451 1453 1454 1454 1454 1455 1456 1457 1457 1458 1458 1458 1458 1458 1458 1458 1457 1457 1458 1458 1458 1458 1457 1457 1457 1457 1458 1458 1457 1457 1457 1457 1457 1457 1458 1458 1458 1456 1455 1455 1454 1453 1453 1452 1452 1450 1449 1448 1449 1449 1449 1449 1449 1450 1450 1450 1451 1451 1452
1429 1430 1431 1432 1433 1434 1434 1434 1435 1435 1436 1437 1437 1438 1439 1439 1440 1441 1441 1442 1442 1443 1444 1445 1445 1446 1448 1449 1450 1451 1451 1452 1453 1454 1454 1455 1455 1455 1455 1455 1455 1454 1454 1454 1454 1454 1455 1455 1455 1455 1455 1455 1456 1456 1455 1455 1455 1455 1455 1456 1456 1456 1456 1455 1455 1454 1453 1452 1452 1452 1451 1450 1450 1449 1450 1450 1450 1451 1451 1452 1452 1453 1454 1454 1455
1426 1426 1427 1428 1429 1430 1430 1431 1431 1432 1433 1433 1434 1435 1435 1436 1436 1437 1437 1438 1439 1440 1441 1441 1442 1443 1444 1445 1446 1448 1448 1449 1450 1451 1451 1451 1452 1452 1452 1452 1452 1452 1452 1451 1451 1451 1451 1452 1452 1452 1452 1453 1453 1454 1454 1453 1453 1453 1453 1454 1454 1454 1454 1454 1454 1453 1452 1452 1451 1451 1451 1451 1450 1450 1450 1450 1451 1452 1452 1453 1454 1455 1455 1456 1457
1422 1422 1423 1424 1425 1426 1426 1427 1427 1428 1429 1429 1430 1431 1431 1432 1432 1433 1433 1434 1435 1436 1438 1438 1438 1439 1441 1442 1443 1444 1445 1445 1446 1447 1447 1448 1448 1448 1449 1449 1450 1450 1450 1450 1450 1449 1449 1449 1449 1449 1450 1450 1451 1451 1451 1451 1450 1450 1451 1451 1452 1452 1452 1452 1452 1451 1451 1451 1451 1450 1450 1450 1450 1450 1451 1451 1451 1452 1453 1453 1454 1455 1456 1457 1458
1419 1419 1419 1420 1421 1421 1422 1423 1423 1424 1425 1425 1426 1427 1427 1428 1428 1428 1429 1431 1431 1432 1434 1435 1435 1436 1437 1438 1439 1440 1441 1442 1443 1443 1444 1444 1444 1445 1445 1446 1446 1447 1447 1447 1447 1446 1446 1446 1446 1446 1447 1447 1447 1448 1448 1448 1448 1448 1448 1449 1449 1450 1450 1450 1450 1450 1450 1450 1450 1450 1450 1449 1450 1450 1450 1450 1451 1451 1452 1454 1455 1455 1456 1457 1458
1415 1415 1415 1416 1416 1417 1417 1419 1419 1420 1421 1422 1422 1423 1424 1424 1424 1425 1426 1427 1428 1428 1430 1431 1432 1433 1434 1434 1434 1436 1437 1438 1438 1439 1440 1440 1440 1441 1441 1442 1442 1443 1443 1443 1443 1443 1443 1443 1443 1443 1443 1443 1444 1445 1445 1445 1445 1446 1446 1446 1447 1447 1447 1448 1448 1448 1448 1448 1449 1449 1449 1449 1449 1449 1449 1450 1450 1451 1452 1453 1454 1455 1456 1457 1458
1411 1411 1411 1411 1411 1412 1413 1414 1415 1416 1417 1418 1419 1419 1420 1420 1421 1422 1422 1423 1424 1425 1426 1427 1428 1430 1431 1430 1430 1432 1434 1434 1435 1437 1437 1436 1436 1437 1437 1438 1439 1439 1439 1440 1439 1439 1439 1439 1439 1439 1439 1439 1440 1441 1441 1442 1442 1443 1443 1444 1444 1445 1445 1445 1446 1446 1446 1446 1447 1448 1448 1448 1448 1448 1449 1449 1450 1451 1452 1453 1454 1455 1456 1457 1458
1407 1407 1407 1407 1407 1408 1408 1409 1410 1411 1413 1414 1415 1416 1416 1417 1418 1419 1419 1420 1421 1422 1423 1424 1425 1426 1427 1427 1427 1429 1431 1432 1433 1434 1434 1433 1434 1434 1434 1434 1435 1435 1436 1436 1436 1436 1436 1436 1436 1436 1436 1436 1437 1437 1438 1438 1439 1440 1440 1441 1441 1442 1443 1443 1444 1444 1444 1444 1445 1446 1446 1447 1447 1447 1448 1449 1449 1450 1451 1452 1453 1454 1455 1457 1458
1403 1404 1404 1405 1404 1404 1404 1405 1406 1407 1408 1409 1410 1412 1412 1413 1414 1415 1416 1417 1418 1418 1419 1420 1421 1422 1423 1423 1424 1425 1427 1428 1429 1430 1430 1430 1431 1431 1431 1431 1431 1431 1432 1432 1432 1432 1432 1432 1432 1432 1432 1433 1433 1434 1434 1435 1435 1436 1438 1438 1439 1440 1440 1441 1441 1442 1442 1442 1443 1443 1444 1445 1446 1447 1447 1448 1449 1450 1450 1451 1452 1453 1454 1456 1457
1399 1400 1401 1401 1400 1400 1400 1401 1402 1403 1404 1405 1406 1407 1408 1409 1411 1412 1413 1413 1414 1415 1416 1417 1418 1419 1419 1419 1420 1421 1422 1423 1425 1425 1426 1426 1427 1427 1427 1427 1427 1427 1428 1428 1428 1429 1429 1429 1429 1429 1429 1429 1430 1430 1431 1432 1432 1433 1435 1435 1436 1437 1438 1438 1439 1439 1440 1440 1440 1441 1442 1444 1445 1446 1446 1447 1448 1449 1450 1450 1451 1452 1453 1454 1456
1396 1396 1396 1396 1396 1396 1396 1397 1398 1399 1400 1401 1402 1403 1404 1406 1407 1408 1409 1410 1411 1411 1412 1413 1414 1415 1415 1415 1416 1417 1418 1418 1420 1420 1421 1422 1422 1423 1423 1423 1423 1423 1424 1424 1425 1425 1425 1425 1425 1425 1425 1426 1426 1426 1427 1428 1429 1430 1431 1432 1433 1434 1435 1436 1436 1437 1437 1438 1438 1439 1440 1442 1443 1444 1445 1446 1447 1448 1449 1449 1450 1451 1452 1453 1454
1391 1392 1392 1393 1393 1393 1393 1394 1395 1395 1396 1397 1398 1399 1400 1401 1403 1404 1405 1406 1407 1407 1408 1409 1410 1411 1411 1411 1411 1413 1413 1414 1414 1415 1417 1417 1418 1418 1419 1419 1419 1419 1419 1420 1421 1421 1421 1421 1422 1422 1422 1422 1422 1422 1423 1424 1425 1427 1428 1429 1430 1431 1432 1433 1434 1434 1435 1435 1436 1437 1439 1440 1441 1442 1443 1444 1445 1446 1447 1448 1449 1450 1451 1452 1453
1389 1389 1389 1389 1390 1390 1390 1391 1392 1392 1392 1393 1394 1394 1396 1397 1398 1399 1400 1401 1402 1403 1404 1405 1406 1407 1407 1407 1407 1408 1409 1409 1410 1410 1412 1413 1414 1414 1415 1415 1415 1415 1415 1416 1416 1416 1417 1417 1418 1418 1418 1418 1418 1419 1419 1420 1421 1422 1424 1425 1427 1428 1429 1430 1431 1432 1432 1433 1434 1435 1436 1438 1439 1441 1441 1442 1444 1445 1446 1447 1448 1448 1450 1451 1451
1387 1387 1387 1387 1386 1387 1387 1388 1388 1388 1389 1389 1390 1390 1391 1392 1393 1394 1395 1397 1398 1399 1400 1401 1401 1402 1402 1403 1403 1403 1404 1405 1406 1406 1407 1408 1409 1410 1410 1411 1411 1411 1412 1412 1412 1412 1413 1414 1414 1414 1415 1415 1415 1416 1416 1416 1417 1418 1419 1421 1423 1424 1426 1427 1429 1429 1430 1431 1432 1433 1434 1435 1437 1438 1439 1440 1442 1443 1444 1445 1446 1446 1448 1449 1450
1384 1383 1383 1383 1383 1382 1383 1383 1384 1385 1385 1385 1385 1386 1387 1388 1389 1390 1390 1392 1393 1394 1395 1396 1397 1397 1398 1398 1399 1399 1400 1400 1401 1402 1403 1404 1405 1405 1406 1406 1407 1407 1408 1408 1408 1408 1409 1410 1410 1411 1411 1412 1412 1412 1413 1413 1414 1415 1415 1417 1418 1420 1422 1424 1425 1427 1427 1428 1429 1430 1431 1433 1434 1435 1437 1438 1439 1440 1441 1442 1443 1444 1445 1446 1447
1381 1380 1379 1379 1379 1379 1379 1380 1381 1381 1381 1381 1381 1382 1382 1383 1384 1385 1386 1387 1388 1388 1389 1391 1391 1392 1393 1393 1394 1395 1395 1396 1396 1398 1399 1399 1400 1401 1402 1402 1402 1403 1404 1404 1404 1404 1405 1406 1407 1408 1408 1408 1409 1409 1409 1410 1410 1411 1412 1413 1414 1416 1418 1420 1421 1423 1424 1425 1426 1427 1429 1430 1431 1432 1433 1435 1436 1437 1438 1439 1440 1441 1442 1442 1444
1379 1378 1376 1376 1376 1376 1377 1378 1378 1378 1377 1377 1377 1378 1378 1379 1379 1380 1381 1382 1383 1383 1384 1385 1386 1387 1388 1388 1389 1390 1391 1391 1392 1393 1394 1395 1396 1397 1397 1398 1398 1399 1400 1400 1401 1401 1402 1402 1403 1404 1404 1405 1405 1406 1406 1406 1407 1407 1408 1409 1410 1412 1414 1416 1418 1419 1421 1422 1423 1424 1425 1427 1428 1429 1430 1431 1432 1433 1434 1435 1436 1437 1438 1438 1439
1375 1375 1374 1373 1373 1373 1374 1374 1374 1374 1373 1373 1373 1374 1374 1374 1375 1376 1376 1377 1378 1378 1379 1380 1381 1382 1383 1384 1384 1385 1386 1386 1387 1388 1389 1390 1391 1392 1393 1393 1393 1394 1396 1397 1397 1397 1398 1398 1399 1400 1400 1401 1402 1402 1403 1403 1403 1404 1405 1406 1407 1408 1410 1412 1414 1416 1417 1419 1420 1421 1422 1423 1424 1425 1426 1427 1428 1429 1430 1431 1432 1433 1433 1434 1435